Temperature
-4 -3 -3 -4 -4 -4 -4 -4 -4 -3 -3 -3 -4 -4 -3 -3 -3 -3 -3 -3 -3 -3 -3 -2 -2 -2 -2 -2 -1 -1 -1 -1 -1 -0 -0 0 0 1 1 1 1 1 1 1
-4 -4 -4 -3 -3 -4 -4 -4 -4 -4 -3 -4 -3 -3 -4 -4 -4 -4 -4 -4 -4 -4 -3 -3 -3 -2 -2 -2 -2 -1 -1 -1 -1 -1 -1 -0 -0 -0 0 0 1 1 1 1
-5 -5 -4 -4 -4 -4 -4 -5 -5 -4 -4 -5 -5 -5 -5 -4 -5 -5 -5 -5 -5 -4 -4 -4 -3 -3 -3 -3 -2 -2 -2 -2 -2 -1 -1 -1 -1 -1 -0 -0 0 0 0 1
-6 -5 -4 -3 -5 -5 -5 -6 -6 -6 -6 -6 -5 -5 -4 -4 -5 -5 -5 -5 -5 -5 -4 -4 -4 -4 -3 -3 -3 -2 -2 -2 -2 -2 -2 -1 -1 -1 -1 -0 -0 -0 -0 0
-6 -6 -5 -4 -5 -6 -6 -6 -6 -7 -6 -6 -5 -5 -5 -4 -5 -5 -6 -6 -6 -5 -5 -5 -4 -4 -4 -4 -3 -3 -2 -2 -2 -2 -2 -2 -2 -1 -1 -1 -1 -1 -0 -0
-7 -6 -5 -4 -5 -5 -6 -5 -6 -6 -7 -6 -6 -7 -6 -5 -5 -6 -6 -6 -6 -5 -5 -5 -5 -5 -4 -4 -4 -3 -3 -3 -3 -3 -2 -2 -2 -2 -2 -1 -1 -1 -1 -0
-7 -7 -6 -6 -6 -6 -5 -5 -5 -6 -6 -6 -7 -6 -6 -6 -6 -6 -6 -6 -6 -6 -5 -5 -5 -5 -5 -5 -4 -4 -4 -3 -3 -3 -3 -3 -2 -2 -2 -2 -1 -1 -1 -1
-8 -7 -6 -6 -7 -6 -6 -5 -5 -5 -5 -6 -6 -6 -6 -6 -6 -6 -6 -6 -6 -6 -6 -6 -6 -6 -5 -5 -5 -5 -4 -4 -4 -4 -3 -3 -3 -3 -2 -2 -2 -2 -1 -1
-7 -6 -6 -6 -6 -5 -5 -5 -5 -6 -6 -6 -6 -6 -6 -6 -6 -6 -6 -6 -6 -6 -6 -6 -6 -6 -6 -6 -5 -5 -5 -4 -4 -4 -4 -4 -3 -3 -3 -3 -2 -2 -2 -1
-8 -8 -7 -6 -5 -5 -5 -5 -6 -6 -6 -6 -6 -6 -7 -7 -7 -7 -7 -7 -7 -7 -6 -6 -6 -6 -6 -6 -6 -6 -5 -5 -5 -5 -5 -4 -4 -4 -3 -3 -3 -2 -2 -2
-8 -8 -7 -6 -5 -5 -6 -6 -6 -6 -6 -6 -7 -7 -7 -7 -7 -7 -7 -7 -7 -7 -7 -7 -7 -6 -6 -6 -6 -6 -6 -6 -6 -5 -5 -5 -4 -4 -4 -4 -4 -3 -3 -3
-8 -7 -7 -6 -5 -6 -6 -6 -6 -6 -7 -7 -7 -7 -7 -7 -7 -7 -7 -8 -7 -7 -7 -7 -7 -7 -7 -7 -7 -6 -6 -6 -6 -6 -6 -5 -5 -5 -4 -4 -4 -4 -3 -3
-6 -6 -6 -6 -6 -6 -6 -6 -7 -7 -7 -7 -7 -7 -7 -8 -8 -8 -8 -8 -8 -8 -8 -8 -7 -7 -7 -7 -7 -7 -6 -6 -7 -6 -6 -6 -6 -6 -5 -5 -4 -4 -4 -4
-7 -7 -7 -7 -7 -7 -7 -7 -7 -7 -7 -7 -7 -8 -8 -8 -8 -8 -8 -8 -8 -8 -8 -8 -8 -7 -7 -7 -7 -7 -7 -7 -7 -7 -7 -6 -6 -6 -6 -6 -5 -5 -5 -5
-7 -7 -7 -7 -7 -8 -8 -8 -8 -7 -7 -8 -8 -8 -8 -8 -8 -8 -8 -9 -9 -8 -8 -8 -8 -8 -8 -8 -8 -7 -7 -7 -7 -7 -7 -7 -7 -7 -7 -7 -6 -6 -6 -5
-8 -8 -8 -8 -8 -8 -8 -8 -8 -8 -8 -8 -8 -8 -9 -9 -9 -9 -9 -9 -9 -9 -9 -9 -9 -8 -8 -8 -8 -8 -8 -8 -7 -7 -7 -7 -7 -8 -7 -7 -7 -7 -7 -6
-8 -8 -8 -8 -8 -9 -9 -9 -9 -9 -9 -9 -9 -9 -9 -9 -9 -9 -9 -9 -9 -9 -9 -9 -9 -9 -9 -9 -9 -8 -8 -8 -8 -8 -8 -8 -8 -8 -8 -8 -7 -7 -7 -7
-8 -8 -9 -9 -9 -9 -9 -9 -9 -9 -9 -9 -9 -9 -9 -9 -9 -9 -9 -9 -9 -9 -9 -9 -9 -9 -9 -9 -9 -9 -9 -9 -9 -8 -8 -9 -9 -9 -8 -8 -8 -8 -8 -8
-9 -9 -9 -9 -9 -9 -9 -9 -9 -10 -10 -10 -10 -10 -10 -10 -10 -10 -10 -10 -10 -9 -9 -10 -10 -10 -9 -9 -9 -9 -9 -9 -9 -9 -9 -9 -9 -9 -9 -9 -9 -9 -9 -8
-9 -9 -9 -9 -9 -9 -10 -10 -10 -10 -10 -10 -10 -10 -10 -10 -10 -10 -10 -10 -10 -10 -10 -10 -10 -10 -10 -10 -10 -10 -10 -10 -9 -9 -9 -9 -9 -9 -9 -9 -9 -9 -9 -9
-9 -9 -9 -10 -10 -10 -10 -10 -10 -10 -10 -10 -10 -10 -10 -10 -11 -11 -10 -10 -10 -10 -10 -10 -10 -10 -10 -10 -10 -10 -10 -10 -10 -10 -10 -10 -10 -10 -10 -10 -10 -10 -10 -9
-10 -10 -10 -10 -10 -10 -10 -10 -10 -10 -11 -11 -11 -11 -11 -11 -11 -11 -11 -11 -11 -11 -11 -11 -11 -11 -11 -10 -10 -10 -10 -10 -10 -10 -10 -10 -10 -10 -10 -10 -10 -10 -10 -10
-10 -10 -10 -10 -10 -11 -11 -11 -11 -11 -11 -11 -11 -11 -11 -11 -11 -11 -11 -11 -11 -11 -11 -11 -11 -11 -11 -11 -11 -11 -11 -11 -11 -11 -11 -11 -11 -11 -11 -11 -11 -10 -10 -10
-10 -10 -11 -11 -11 -11 -11 -11 -11 -11 -11 -11 -11 -11 -11 -11 -11 -11 -11 -11 -11 -11 -11 -11 -11 -11 -11 -11 -11 -11 -11 -11 -11 -11 -11 -11 -11 -11 -11 -11 -11 -11 -11 -11
-11 -11 -11 -11 -11 -11 -11 -11 -11 -11 -12 -12 -12 -12 -12 -12 -12 -11 -12 -12 -12 -11 -11 -11 -11 -11 -11 -11 -11 -11 -11 -12 -12 -12 -11 -11 -11 -11 -11 -11 -11 -11 -11 -11
-11 -11 -12 -12 -12 -12 -12 -12 -12 -12 -12 -12 -12 -12 -12 -12 -12 -12 -12 -12 -12 -12 -12 -12 -12 -12 -12 -12 -12 -12 -12 -12 -12 -12 -12 -12 -12 -12 -12 -11 -11 -11 -11 -11
-12 -12 -12 -12 -12 -12 -12 -12 -12 -12 -12 -12 -12 -12 -12 -12 -12 -12 -12 -12 -12 -12 -12 -12 -12 -12 -12 -12 -12 -12 -12 -12 -12 -12 -12 -12 -12 -12 -12 -12 -12 -12 -11 -11
Wind_Speed
7 7 5 7 9 7 8 9 9 9 9 11 7 6 7 6 6 6 7 7 8 8 8 7 8 7 7 7 7 6 5 6 6 6 6 5 6 6 6 6 6 6 6 6
5 5 6 9 11 10 10 9 10 10 11 8 6 5 5 6 6 7 7 8 9 9 9 8 8 9 8 8 8 6 6 6 6 6 6 5 6 5 6 6 6 6 6 7
4 4 4 7 8 8 5 5 6 9 9 6 5 5 5 5 5 6 8 9 10 9 9 8 8 8 8 8 8 6 6 6 6 6 5 6 6 5 6 6 5 6 7 7
2 3 5 7 2 4 5 4 5 6 6 6 6 6 6 4 3 6 8 9 10 9 9 9 8 8 8 8 7 6 6 6 6 6 6 5 5 5 5 5 5 6 6 6
2 3 8 6 2 2 3 5 3 5 7 5 4 4 4 2 3 5 7 8 8 8 9 8 8 8 8 8 7 7 6 6 6 6 6 5 5 5 5 4 5 5 5 6
3 3 6 6 3 1 1 5 3 3 5 4 3 3 4 5 6 8 8 7 8 8 8 8 8 8 7 8 7 8 8 8 7 6 6 6 6 5 4 4 5 5 5 5
4 5 7 5 3 1 2 5 3 3 4 3 3 5 6 7 7 7 7 8 8 7 7 8 8 8 8 8 8 9 9 8 7 6 6 6 5 4 4 4 4 4 5 5
4 5 7 2 2 4 5 3 2 3 3 4 6 6 6 6 7 8 8 8 8 7 8 8 7 7 8 9 9 8 8 8 8 6 5 5 4 4 4 3 4 4 4 4
8 7 3 3 5 4 2 3 4 3 5 4 5 6 6 6 7 7 8 8 7 7 8 8 7 7 8 10 9 9 8 8 8 7 5 4 4 4 3 3 2 3 3 3
5 7 5 5 4 4 4 4 5 5 5 4 5 6 7 7 7 7 7 7 7 7 8 9 8 7 7 9 9 8 8 8 7 6 5 4 4 3 3 3 2 2 2 2
5 6 5 4 4 4 4 4 5 4 4 5 5 6 6 6 7 7 7 7 6 6 8 9 9 9 9 8 8 8 8 7 7 6 5 4 4 3 3 3 3 3 2 2
6 5 4 5 4 4 4 5 6 5 5 4 4 6 6 6 6 6 7 6 7 7 8 9 9 9 8 8 7 7 7 7 6 5 5 4 4 4 6 5 7 6 5 4
4 3 4 6 5 3 4 6 6 6 6 6 5 5 5 5 5 5 6 6 7 7 8 8 8 9 8 8 7 6 7 7 5 5 4 4 3 3 4 5 7 7 7 7
4 2 3 4 4 5 5 5 4 4 4 4 4 4 4 4 5 6 6 7 7 7 7 7 8 9 9 8 7 7 6 6 6 4 4 4 3 3 2 3 3 4 6 8
3 3 5 5 5 5 4 3 4 5 5 5 4 4 4 5 6 7 7 6 7 7 7 7 8 9 8 7 7 6 6 5 4 4 4 3 3 3 3 3 2 3 4 5
5 4 3 4 5 5 4 3 4 5 5 5 6 6 5 5 6 7 6 5 5 7 7 7 8 8 7 7 6 5 5 7 6 3 3 3 3 3 3 3 3 3 4 4
3 4 4 5 5 5 5 5 5 5 5 6 7 6 6 5 6 6 6 6 6 7 7 7 8 8 6 6 5 4 4 5 7 4 3 3 3 3 3 3 3 3 3 5
4 5 5 5 5 6 6 5 4 5 5 6 6 5 5 5 6 7 7 6 6 6 6 7 7 6 6 5 4 3 3 3 3 3 3 3 3 3 3 3 3 3 4 5
3 4 4 4 4 4 5 5 5 5 5 5 5 5 5 5 6 6 6 5 6 7 7 7 10 7 5 6 5 2 3 3 3 3 3 4 4 3 3 3 3 3 3 4
3 3 3 4 4 3 4 5 5 5 5 4 4 5 5 5 5 5 5 5 5 5 6 7 6 5 5 5 5 2 2 2 2 3 3 3 3 3 3 3 3 3 3 3
4 4 4 4 5 4 4 4 4 5 5 4 4 5 5 6 5 4 4 5 5 5 6 7 5 4 4 4 4 2 2 2 2 2 2 2 2 3 3 3 3 3 3 3
4 4 5 5 5 5 5 4 4 5 5 5 4 4 4 5 5 4 4 4 5 8 5 3 3 5 5 4 2 2 2 2 2 2 2 2 2 2 3 3 3 3 3 3
4 4 4 4 5 5 5 5 4 4 4 4 4 4 5 5 4 3 5 4 4 7 5 3 5 7 6 3 2 2 2 2 2 2 2 2 2 2 3 3 3 3 3 3
4 4 4 4 4 4 5 5 5 4 4 4 4 4 4 4 4 3 4 6 7 7 4 5 7 7 5 2 2 2 2 2 2 2 2 2 2 2 3 3 3 3 3 3
3 3 3 4 4 4 5 5 5 4 4 4 4 4 3 2 3 4 4 4 6 6 4 5 7 6 4 2 2 2 2 2 2 2 2 2 3 3 3 3 3 3 3 3
3 3 3 4 4 4 4 4 4 4 4 4 4 3 3 3 3 3 3 4 4 5 4 3 4 4 3 2 2 2 2 3 3 3 3 3 3 3 3 3 4 4 4 4
3 3 3 4 4 4 3 3 4 4 4 4 4 4 4 3 3 3 3 3 3 3 3 3 3 3 3 3 3 3 3 3 3 3 3 3 3 3 4 4 4 4 4 4
Wind_Direction
257 269 257 254 260 239 219 221 228 253 257 275 287 287 297 309 322 328 327 328 325 323 320 321 322 322 320 309 305 301 290 277 271 269 264 260 250 244 241 238 241 239 240 243
280 269 265 272 266 250 243 240 245 265 273 277 286 297 310 317 321 324 324 323 321 320 319 321 320 318 317 311 305 301 288 282 281 276 270 262 254 247 247 245 242 240 241 242
274 300 315 276 252 229 228 223 218 244 263 301 306 303 295 302 311 316 321 322 321 317 314 312 311 311 308 307 307 303 292 289 288 280 275 267 261 253 250 249 245 242 245 243
281 348 254 249 252 211 217 249 236 255 279 293 286 289 281 281 299 314 319 320 320 318 314 311 312 314 314 316 314 306 298 295 294 291 281 277 268 260 254 252 246 244 247 244
207 262 275 288 271 189 215 273 245 255 283 296 313 320 297 292 315 307 308 309 307 308 308 310 314 317 322 322 320 316 305 300 300 295 286 283 272 267 264 255 256 253 252 247
187 230 254 263 277 258 145 280 272 252 280 297 343 322 290 315 321 315 314 313 313 313 313 316 317 321 324 322 322 318 312 304 299 295 288 283 277 274 266 255 258 261 260 253
208 237 264 265 270 112 176 266 295 263 273 273 246 246 280 303 306 308 311 312 316 316 314 314 318 322 320 318 314 310 309 310 306 299 293 289 287 286 268 262 263 264 263 263
187 220 256 240 144 189 234 280 280 275 268 261 268 280 291 298 303 310 315 318 321 321 318 318 320 322 320 316 313 316 317 315 310 305 303 305 300 298 285 263 254 256 259 267
200 221 255 199 215 244 260 268 268 264 269 260 272 284 295 299 303 308 310 315 319 318 317 321 323 322 316 316 320 322 321 317 315 313 311 308 301 298 299 290 273 271 253 252
250 263 261 257 258 275 260 254 269 269 272 263 268 281 292 299 305 309 311 313 317 321 321 322 323 322 314 316 320 321 320 317 318 317 317 319 313 307 303 296 290 291 289 279
254 275 300 286 247 255 271 282 290 289 268 257 263 278 282 293 299 303 308 311 315 316 316 315 319 319 320 323 325 324 322 321 323 323 320 321 320 316 311 305 296 298 286 278
237 240 227 266 273 276 279 281 279 277 285 278 259 269 283 291 293 298 305 310 315 316 317 317 319 318 321 323 324 322 323 326 326 327 325 322 321 331 339 338 337 335 335 328
236 250 244 268 285 285 282 283 279 267 264 278 281 272 279 288 295 299 304 309 310 311 313 315 318 320 323 324 325 324 321 320 320 324 324 319 317 326 338 347 348 350 349 349
256 264 277 276 282 293 293 294 293 291 283 276 280 288 290 294 302 304 304 304 305 309 313 316 319 320 323 325 326 325 321 319 322 318 319 318 320 325 329 337 345 349 351 356
266 249 253 274 287 297 303 310 314 310 310 309 301 294 294 297 300 301 303 308 312 313 316 320 320 320 324 326 327 326 325 325 321 318 321 326 331 337 340 338 349 350 353 359
292 292 283 284 290 297 301 297 293 297 304 306 307 302 294 290 293 299 305 312 313 311 313 316 315 317 321 325 327 327 327 331 335 331 335 342 346 349 350 354 2 2 357 355
277 287 294 297 295 295 290 282 278 286 296 297 298 300 303 306 309 311 311 310 303 299 304 308 309 314 320 324 323 324 327 332 342 345 347 348 350 349 350 356 360 358 354 354
250 255 258 259 269 284 294 296 291 290 289 288 296 300 301 302 300 303 308 314 315 315 312 309 310 316 321 324 321 320 326 332 341 346 346 349 355 357 357 359 359 356 351 352
284 276 278 278 274 276 284 289 290 290 291 293 294 291 287 287 290 295 304 313 317 316 316 314 321 327 323 324 332 325 336 343 345 349 353 353 359 3 1 358 353 351 350 351
304 305 303 304 302 292 290 292 291 293 292 291 291 292 294 294 295 298 299 295 288 288 298 310 317 316 317 320 333 336 344 347 346 348 353 356 353 351 350 347 344 344 348 348
309 313 313 311 310 306 297 296 293 294 299 296 288 286 289 294 293 294 300 304 305 305 308 316 322 315 315 325 335 341 343 344 344 340 337 338 341 340 341 340 339 337 338 338
307 309 309 309 309 308 308 305 297 295 300 301 298 294 297 301 303 298 283 280 298 316 322 314 315 321 332 339 344 345 339 336 329 328 326 326 327 326 327 330 327 325 326 326
299 300 303 305 303 303 311 311 303 299 297 298 297 295 291 290 292 295 302 304 309 320 328 319 324 330 338 353 357 349 339 330 323 318 313 310 308 309 311 315 313 313 316 317
302 307 307 309 312 316 319 318 315 308 301 297 293 290 290 299 300 285 283 306 322 325 327 325 333 338 346 354 351 345 335 325 319 314 313 314 313 311 309 308 308 310 310 308
305 305 310 318 320 313 308 315 322 322 320 314 310 308 303 288 284 298 305 310 320 330 329 328 337 345 351 344 341 330 319 311 309 313 311 309 307 306 304 302 300 300 299 298
305 302 299 299 301 306 312 317 318 320 322 321 322 322 322 316 304 304 309 313 317 329 330 323 328 336 338 334 327 322 317 316 318 316 310 306 302 301 299 298 298 295 291 290
312 311 314 319 317 316 315 314 311 313 315 314 315 322 325 326 325 323 321 325 328 328 325 324 325 327 324 323 320 318 316 313 308 306 305 302 298 295 294 292 293 296 298 295
Height
1524 1520 1521 1519 1518 1517 1518 1516 1514 1504 1501 1493 1492 1491 1488 1485 1482 1481 1479 1476 1473 1470 1467 1465 1462 1460 1457 1456 1454 1452 1451 1450 1450 1449 1448 1447 1447 1447 1447 1448 1448 1449 1450 1450
1523 1518 1518 1515 1510 1511 1510 1509 1508 1503 1498 1492 1490 1489 1487 1485 1482 1480 1478 1475 1472 1469 1465 1462 1459 1457 1454 1452 1451 1449 1447 1446 1445 1445 1444 1443 1442 1442 1442 1442 1443 1444 1444 1445
1523 1520 1516 1513 1507 1505 1505 1503 1503 1500 1495 1491 1489 1487 1485 1483 1481 1479 1477 1474 1470 1467 1464 1461 1458 1455 1452 1450 1448 1446 1444 1442 1441 1440 1439 1439 1438 1437 1437 1437 1437 1438 1438 1439
1526 1524 1520 1505 1501 1500 1500 1500 1499 1496 1493 1491 1489 1486 1484 1482 1480 1478 1475 1472 1468 1465 1462 1459 1456 1453 1449 1447 1444 1443 1441 1439 1438 1436 1435 1434 1433 1432 1432 1432 1432 1432 1433 1433
1527 1525 1514 1503 1499 1500 1500 1498 1495 1494 1491 1489 1487 1484 1482 1481 1479 1477 1474 1471 1467 1464 1460 1457 1454 1450 1447 1444 1442 1440 1438 1436 1434 1433 1431 1430 1429 1428 1428 1428 1428 1428 1428 1428
1526 1522 1514 1501 1498 1496 1499 1497 1492 1490 1489 1487 1486 1486 1482 1479 1476 1474 1471 1468 1465 1461 1458 1455 1451 1448 1444 1441 1438 1436 1435 1433 1431 1430 1428 1426 1425 1424 1424 1424 1423 1423 1423 1424
1525 1522 1509 1500 1496 1497 1501 1495 1490 1488 1487 1486 1485 1484 1481 1477 1475 1472 1469 1466 1463 1459 1456 1452 1449 1446 1442 1439 1436 1434 1432 1429 1428 1426 1425 1423 1422 1421 1420 1419 1419 1419 1419 1419
1522 1521 1508 1496 1496 1497 1494 1489 1488 1487 1486 1484 1482 1480 1478 1475 1473 1470 1467 1464 1460 1457 1453 1450 1447 1444 1440 1437 1434 1431 1428 1426 1424 1422 1421 1420 1419 1417 1417 1416 1415 1414 1414 1414
1508 1503 1495 1492 1491 1490 1489 1488 1486 1485 1483 1482 1479 1477 1475 1472 1470 1467 1464 1461 1458 1455 1451 1448 1445 1442 1438 1435 1432 1429 1426 1423 1421 1419 1418 1417 1416 1414 1413 1412 1411 1410 1410 1410
1502 1494 1491 1490 1489 1488 1487 1486 1484 1483 1481 1479 1477 1474 1472 1470 1467 1464 1462 1459 1456 1452 1449 1446 1443 1440 1437 1434 1430 1427 1424 1421 1419 1417 1415 1414 1413 1412 1411 1409 1408 1408 1408 1407
1497 1492 1489 1487 1486 1486 1484 1483 1481 1480 1478 1476 1474 1472 1470 1467 1465 1462 1459 1457 1454 1451 1447 1444 1441 1438 1435 1431 1428 1425 1422 1419 1416 1415 1413 1412 1411 1409 1408 1408 1407 1407 1406 1406
1492 1488 1488 1485 1484 1483 1482 1480 1478 1476 1474 1473 1472 1469 1467 1465 1462 1460 1457 1454 1451 1448 1445 1442 1439 1436 1433 1430 1426 1423 1420 1417 1415 1413 1411 1410 1409 1407 1406 1406 1405 1405 1404 1404
1486 1485 1484 1483 1482 1480 1479 1477 1475 1473 1471 1470 1468 1467 1464 1462 1460 1457 1455 1452 1449 1446 1443 1440 1437 1434 1431 1428 1424 1421 1419 1416 1414 1412 1410 1409 1408 1406 1404 1403 1403 1402 1402 1401
1483 1483 1481 1480 1479 1477 1476 1474 1472 1470 1468 1467 1465 1463 1461 1459 1456 1454 1452 1449 1447 1444 1440 1437 1434 1431 1428 1425 1422 1420 1417 1415 1413 1411 1409 1408 1406 1405 1403 1402 1401 1400 1400 1399
1480 1480 1479 1477 1475 1474 1472 1471 1469 1467 1465 1463 1462 1460 1458 1456 1453 1451 1449 1446 1444 1441 1438 1435 1431 1429 1426 1423 1421 1418 1416 1413 1411 1410 1408 1407 1405 1404 1403 1402 1401 1399 1398 1398
1477 1476 1475 1473 1472 1470 1469 1467 1465 1463 1462 1460 1458 1457 1455 1453 1451 1448 1446 1443 1441 1438 1435 1432 1429 1427 1424 1421 1419 1417 1414 1412 1410 1408 1407 1405 1404 1403 1402 1401 1400 1399 1398 1397
1474 1472 1471 1470 1468 1467 1465 1464 1463 1461 1459 1457 1456 1454 1452 1450 1448 1445 1443 1441 1438 1435 1433 1430 1427 1425 1422 1420 1417 1415 1413 1411 1409 1408 1406 1404 1403 1402 1402 1401 1400 1399 1399 1398
1471 1470 1469 1468 1466 1464 1462 1461 1459 1458 1456 1455 1453 1451 1449 1447 1445 1442 1440 1438 1435 1433 1430 1428 1425 1423 1421 1418 1416 1414 1412 1410 1408 1407 1405 1404 1403 1402 1402 1401 1400 1399 1398 1397
1468 1467 1466 1465 1463 1461 1459 1458 1456 1455 1453 1452 1450 1448 1446 1444 1442 1440 1438 1435 1432 1430 1427 1425 1423 1421 1419 1417 1415 1413 1411 1409 1408 1406 1405 1404 1403 1402 1401 1401 1400 1399 1398 1397
1466 1465 1463 1462 1460 1459 1457 1455 1453 1452 1450 1449 1447 1445 1443 1441 1440 1437 1435 1433 1431 1429 1426 1424 1422 1419 1417 1415 1413 1411 1410 1408 1407 1406 1405 1404 1403 1402 1401 1400 1400 1399 1398 1397
1464 1462 1461 1459 1457 1456 1454 1452 1450 1449 1447 1446 1444 1442 1440 1439 1437 1435 1432 1430 1429 1427 1425 1423 1420 1418 1416 1414 1412 1411 1409 1408 1406 1405 1404 1403 1402 1401 1400 1400 1399 1398 1397 1396
1462 1460 1458 1456 1455 1453 1451 1450 1448 1446 1444 1443 1441 1439 1438 1436 1434 1432 1430 1429 1427 1425 1423 1421 1419 1417 1415 1413 1411 1410 1408 1407 1406 1405 1404 1403 1402 1401 1400 1399 1398 1397 1396 1396
1460 1458 1456 1454 1452 1450 1449 1447 1445 1443 1442 1440 1438 1437 1435 1433 1431 1429 1428 1426 1424 1423 1421 1419 1417 1416 1414 1412 1411 1409 1408 1407 1405 1404 1403 1402 1401 1400 1399 1398 1397 1396 1395 1394
1457 1455 1454 1452 1450 1448 1446 1444 1443 1441 1439 1438 1436 1434 1433 1431 1429 1428 1426 1424 1422 1421 1419 1417 1416 1414 1412 1411 1410 1408 1407 1406 1405 1404 1403 1401 1400 1399 1398 1397 1396 1395 1394 1393
1455 1453 1452 1450 1448 1446 1444 1442 1441 1439 1437 1435 1434 1432 1430 1429 1427 1425 1424 1422 1420 1419 1417 1415 1414 1412 1411 1409 1408 1407 1406 1405 1404 1402 1401 1400 1399 1398 1397 1396 1395 1394 1393 1392
1453 1451 1449 1448 1446 1444 1442 1440 1438 1437 1435 1433 1431 1430 1428 1426 1425 1423 1422 1420 1418 1417 1415 1413 1412 1411 1409 1408 1407 1405 1404 1403 1402 1401 1400 1398 1397 1396 1395 1394 1393 1392 1391 1390
1450 1449 1447 1446 1444 1442 1440 1439 1437 1435 1433 1431 1429 1428 1426 1424 1423 1421 1419 1418 1416 1415 1413 1411 1410 1409 1407 1406 1405 1404 1402 1401 1400 1399 1398 1397 1396 1394 1393 1392 1391 1390 1389 1388